Tehachapi, CA

1:50 PM PST on December 09, 2019 (GMT -0800)
Tehachapi Municipal

Weather History for KTSP - October, 2019

Change the Weather History Date:

Wednesday, October 2, 2019

  Actual Average Record
Temperature  
Mean Temperature 47 °F -  
Max Temperature 68 °F 76 °F 89 °F (2012)
Min Temperature 26 °F 46 °F 39 °F (2016)
Degree Days  
Heating Degree Days 18    
Moisture  
Dew Point 23 °F    
Average Humidity 48    
Maximum Humidity 86    
Minimum Humidity 13    
Precipitation  
Precipitation 0.00 in - - ()
Sea Level Pressure  
Sea Level Pressure 30.06 in    
Wind  
Wind Speed 5 mph ()    
Max Wind Speed 22 mph    
Max Gust Speed 28 mph    
Visibility 9.4 miles    
Events      
Averages and records for this station are not official NWS values.
T = Trace of Precipitation, MM = Missing Value Source: Averaged Metar Reports

Daily Weather History Graph

Daily Weather History Graph

Search for Another Location

Airport or City:

Astronomy

Oct. 02, 2019 Rise Set
Actual Time 6:49 AM PDT 6:36 PM PDT
Civil Twilight 6:23 AM PDT 7:01 PM PDT
Nautical Twilight 5:54 AM PDT 7:31 PM PDT
Astronomical Twilight 5:24 AM PDT 8:00 PM PDT
Moon 11:10 AM PDT (10/2) 9:43 PM PDT (10/2)
Length of Visible Light 12h 37m
Length of Day
11h 47m
Waxing Crescent, 21% of the Moon is Illuminated
Oct 2
Waxing Crescent
Oct 5
First Quarter
Oct 13
Full
Oct 21
Last Quarter
Oct 27
New

Hourly Weather History & Observations

Time (PDT) Temp. Windchill Dew Point Humidity Pressure Visibility Wind Dir Wind Speed Gust Speed Precip Events Conditions
12:15 AM 35.6 °F 32.8 °F 26.6 °F 70% 30.04 in 10.0 mi NNE 3.5 mph - N/A   Clear
12:35 AM 32.0 °F 26.4 °F 24.8 °F 75% 30.04 in 10.0 mi SE 5.8 mph - N/A   Clear
12:55 AM 32.0 °F 27.5 °F 26.6 °F 80% 30.04 in 10.0 mi SSE 4.6 mph - N/A   Clear
1:15 AM 32.0 °F 28.7 °F 26.6 °F 80% 30.05 in 10.0 mi NE 3.5 mph - N/A   Clear
1:35 AM 32.0 °F - 26.6 °F 80% 30.04 in 10.0 mi Calm Calm - N/A   Clear
1:55 AM 32.0 °F - 26.6 °F 80% 30.04 in 10.0 mi Calm Calm - N/A   Clear
2:15 AM 32.0 °F 27.5 °F 26.6 °F 80% 30.05 in 10.0 mi ESE 4.6 mph - N/A   Clear
2:35 AM 32.0 °F - 24.8 °F 75% 30.04 in 10.0 mi Calm Calm - N/A   Clear
2:55 AM 30.2 °F - 24.8 °F 80% 30.04 in 10.0 mi Calm Calm - N/A   Clear
3:15 AM 30.2 °F - 24.8 °F 80% 30.04 in 10.0 mi Calm Calm - N/A   Clear
3:35 AM 28.4 °F - 24.8 °F 86% 30.04 in 10.0 mi Calm Calm - N/A   Clear
3:55 AM 28.4 °F 24.6 °F 24.8 °F 86% 30.04 in 10.0 mi ESE 3.5 mph - N/A   Clear
4:15 AM 30.2 °F 23.4 °F 24.8 °F 80% 30.04 in 10.0 mi ESE 6.9 mph - N/A   Clear
4:35 AM 30.2 °F 25.4 °F 24.8 °F 80% 30.04 in 10.0 mi ESE 4.6 mph - N/A   Clear
4:55 AM 28.4 °F 23.3 °F 24.8 °F 86% 30.04 in 10.0 mi SE 4.6 mph - N/A   Clear
5:15 AM 28.4 °F - 24.8 °F 86% 30.04 in 10.0 mi Calm Calm - N/A   Clear
5:35 AM 28.4 °F - 23.0 °F 80% 30.04 in 10.0 mi Calm Calm - N/A   Clear
5:55 AM 28.4 °F - 23.0 °F 80% 30.05 in 10.0 mi Calm Calm - N/A   Clear
6:15 AM 26.6 °F - 23.0 °F 86% 30.05 in 10.0 mi Calm Calm - N/A   Clear
6:35 AM 28.4 °F - 24.8 °F 86% 30.05 in 10.0 mi Calm Calm - N/A   Clear
6:55 AM 28.4 °F - 23.0 °F 80% 30.06 in 9.0 mi Calm Calm - N/A   Clear
7:15 AM 28.4 °F - 24.8 °F 86% 30.07 in 9.0 mi Calm Calm - N/A   Clear
7:35 AM 28.4 °F - 24.8 °F 86% 30.07 in 9.0 mi Calm Calm - N/A   Clear
7:55 AM 33.8 °F - 26.6 °F 75% 30.07 in 9.0 mi Calm Calm - N/A   Clear
8:15 AM 39.2 °F - 26.6 °F 61% 30.08 in 8.0 mi Calm Calm - N/A   Clear
8:35 AM 44.6 °F 40.2 °F 28.4 °F 53% 30.08 in 9.0 mi ESE 8.1 mph - N/A   Clear
8:55 AM 53.6 °F - 26.6 °F 35% 30.09 in 10.0 mi ESE 9.2 mph - N/A   Clear
9:15 AM 57.2 °F - 23.0 °F 27% 30.09 in 10.0 mi ESE 12.7 mph - N/A   Clear
9:35 AM 59.0 °F - 21.2 °F 23% 30.09 in 10.0 mi ESE 11.5 mph 17.3 mph N/A   Clear
9:55 AM 62.6 °F - 19.4 °F 19% 30.10 in 10.0 mi SE 15.0 mph 19.6 mph N/A   Clear
10:15 AM 62.6 °F - 19.4 °F 19% 30.10 in 9.0 mi ESE 17.3 mph 24.2 mph N/A   Clear
10:35 AM 64.4 °F - 19.4 °F 18% 30.10 in 9.0 mi SE 18.4 mph 26.5 mph N/A   Clear
10:55 AM 64.4 °F - 17.6 °F 16% 30.10 in 9.0 mi ESE 19.6 mph 24.2 mph N/A   Clear
11:15 AM 64.4 °F - 17.6 °F 16% 30.10 in 9.0 mi ESE 16.1 mph 24.2 mph N/A   Clear
11:35 AM 64.4 °F - 17.6 °F 16% 30.10 in 10.0 mi ESE 15.0 mph 23.0 mph N/A   Clear
11:55 AM 64.4 °F - 17.6 °F 16% 30.10 in 9.0 mi SE 21.9 mph 27.6 mph N/A   Clear
12:15 PM 64.4 °F - 15.8 °F 15% 30.09 in 8.0 mi ESE 19.6 mph 27.6 mph N/A   Clear
12:35 PM 66.2 °F - 17.6 °F 15% 30.09 in 8.0 mi ESE 19.6 mph 26.5 mph N/A   Clear
12:55 PM 66.2 °F - 17.6 °F 15% 30.08 in 7.0 mi ESE 18.4 mph 23.0 mph N/A   Clear
1:35 PM 66.2 °F - 17.6 °F 15% 30.07 in 8.0 mi ESE 12.7 mph 23.0 mph N/A   Clear
1:55 PM 66.2 °F - 19.4 °F 17% 30.06 in 9.0 mi SE 15.0 mph 21.9 mph N/A   Clear
2:35 PM 68.0 °F - 17.6 °F 15% 30.05 in 9.0 mi SE 15.0 mph 21.9 mph N/A   Clear
2:55 PM 66.2 °F - 17.6 °F 15% 30.05 in 8.0 mi SE 12.7 mph 18.4 mph N/A   Clear
3:15 PM 68.0 °F - 17.6 °F 15% 30.05 in 8.0 mi ESE 12.7 mph 17.3 mph N/A   Clear
3:35 PM 68.0 °F - 15.8 °F 13% 30.04 in 9.0 mi ESE 9.2 mph 18.4 mph N/A   Clear
3:55 PM 68.0 °F - 15.8 °F 13% 30.03 in 10.0 mi SE 10.4 mph 18.4 mph N/A   Clear
4:15 PM 68.0 °F - 15.8 °F 13% 30.03 in 9.0 mi ESE 11.5 mph - N/A   Clear
4:35 PM 68.0 °F - 15.8 °F 13% 30.03 in 10.0 mi SSE 11.5 mph - N/A   Clear
4:55 PM 66.2 °F - 15.8 °F 14% 30.03 in 10.0 mi SE 10.4 mph - N/A   Clear
5:15 PM 66.2 °F - 15.8 °F 14% 30.03 in 10.0 mi SE 9.2 mph - N/A   Clear
5:35 PM 66.2 °F - 26.6 °F 23% 30.03 in 10.0 mi NNW 9.2 mph - N/A   Clear
5:55 PM 60.8 °F - 28.4 °F 29% 30.03 in 8.0 mi NW 9.2 mph - N/A   Clear
6:15 PM 59.0 °F - 28.4 °F 31% 30.04 in 7.0 mi NW 8.1 mph - N/A   Clear
6:35 PM 57.2 °F - 30.2 °F 36% 30.04 in 7.0 mi WSW 3.5 mph - N/A   Clear
6:55 PM 55.4 °F - 28.4 °F 36% 30.04 in 10.0 mi WNW 4.6 mph - N/A   Clear
7:15 PM 55.4 °F - 30.2 °F 38% 30.04 in 8.0 mi NW 3.5 mph - N/A   Clear
7:35 PM 53.6 °F - 30.2 °F 41% 30.05 in 8.0 mi WNW 3.5 mph - N/A   Clear
7:55 PM 53.6 °F - 30.2 °F 41% 30.05 in 10.0 mi WNW 5.8 mph - N/A   Clear
8:15 PM 51.8 °F - 32.0 °F 47% 30.06 in 10.0 mi Calm Calm - N/A   Clear
8:35 PM 48.2 °F - 30.2 °F 50% 30.06 in 10.0 mi Calm Calm - N/A   Clear
8:55 PM 46.4 °F - 26.6 °F 46% 30.07 in 10.0 mi Calm Calm - N/A   Clear
9:15 PM 44.6 °F - 28.4 °F 53% 30.07 in 10.0 mi Calm Calm - N/A   Clear
9:35 PM 41.0 °F - 26.6 °F 57% 30.07 in 10.0 mi Calm Calm - N/A   Clear
9:55 PM 41.0 °F 38.0 °F 28.4 °F 61% 30.08 in 10.0 mi ESE 4.6 mph - N/A   Clear
10:15 PM 41.0 °F 39.0 °F 24.8 °F 53% 30.08 in 10.0 mi NE 3.5 mph - N/A   Clear
10:35 PM 37.4 °F 32.1 °F 26.6 °F 65% 30.07 in 10.0 mi SE 6.9 mph - N/A   Clear
10:55 PM 39.2 °F - 24.8 °F 56% 30.08 in 10.0 mi Calm Calm - N/A   Clear
11:15 PM 39.2 °F 35.9 °F 24.8 °F 56% 30.07 in 10.0 mi East 4.6 mph - N/A   Clear
11:35 PM 39.2 °F - 21.2 °F 49% 30.07 in 10.0 mi Calm Calm - N/A   Clear
11:55 PM 37.4 °F 34.9 °F 19.4 °F 48% 30.07 in 10.0 mi ESE 3.5 mph - N/A   Clear